Vertical_Velocity
-3 -7 -4 -4 -6 4 12 10 13 5 1 10 8 4 7 5 7 11 4 5 6 3
1 -3 -3 2 -3 6 11 11 9 4 18 -1 6 8 19 9 12 11 6 4 6 5
-2 0 -0 -1 -2 5 4 3 13 2 8 -3 14 10 4 3 6 10 8 2 0 0
-2 -2 -0 -2 2 -4 -0 -2 4 7 4 11 -0 6 10 9 7 8 1 0 -2 -0
-2 -2 1 0 -3 -1 -0 -6 -4 -7 -5 -1 3 2 1 -1 1 1 -1 -3 1 -0
-2 -1 -3 1 -2 -3 -1 -1 0 -4 -2 1 3 0 1 0 1 -0 -1 -1 0 -0
-0 -0 -2 -3 -2 -0 1 -0 -1 -0 -1 -0 1 0 0 0 1 -1 2 0 1 1
-0 0 1 -2 -1 -1 -1 -1 0 -0 1 0 -0 1 0 -1 -1 2 1 1 -0 -1
0 -2 1 1 0 0 -1 3 2 3 2 0 -1 -1 0 1 -0 1 2 2 -1 1
-2 -1 -1 2 1 1 -2 -3 -3 -3 -0 1 3 1 0 0 4 1 -4 -2 -1 -1
1 -1 -0 0 -0 -0 -2 -1 -2 -2 -2 -2 -2 -3 -3 -4 -2 -4 -5 -3 -2 -2
-3 5 -0 -1 1 -1 -1 -1 -1 -1 -2 -2 -1 -2 -3 -2 -3 -2 -2 -1 -1 -1
4 -1 2 1 -1 -0 -0 0 -2 -2 -1 0 -1 -1 -3 -2 -3 -2 -2 -3 -2 0
2 -2 3 -0 -1 -1 -1 -1 -1 -2 -3 -3 -4 -2 -2 -1 -3 -4 -1 2 -5 9
Height
5680 5679 5677 5674 5669 5669 5674 5679 5685 5692 5698 5705 5710 5714 5717 5719 5722 5722 5723 5724 5724 5726
5677 5676 5675 5674 5670 5669 5671 5676 5681 5688 5692 5701 5705 5710 5711 5713 5715 5714 5714 5716 5718 5719
5675 5674 5673 5672 5671 5672 5670 5674 5679 5683 5688 5693 5698 5700 5702 5704 5705 5707 5709 5710 5711 5712
5672 5672 5672 5673 5673 5673 5672 5673 5676 5681 5685 5690 5691 5694 5696 5698 5700 5702 5703 5704 5706 5708
5669 5670 5671 5671 5672 5672 5671 5673 5675 5677 5680 5684 5689 5691 5693 5695 5696 5698 5699 5700 5701 5702
5666 5666 5668 5669 5670 5671 5671 5673 5675 5679 5681 5683 5686 5688 5689 5690 5691 5692 5694 5695 5696 5696
5663 5662 5663 5665 5666 5668 5670 5672 5674 5676 5678 5679 5681 5682 5683 5683 5684 5685 5687 5688 5688 5686
5659 5659 5659 5660 5661 5662 5664 5667 5669 5672 5673 5673 5673 5675 5676 5676 5676 5678 5678 5679 5678 5678
5655 5655 5655 5657 5658 5659 5661 5662 5663 5664 5666 5667 5667 5668 5669 5669 5669 5670 5670 5671 5670 5670
5650 5651 5650 5652 5653 5655 5655 5656 5658 5659 5660 5661 5662 5662 5662 5662 5662 5663 5663 5662 5662 5661
5644 5646 5646 5648 5648 5649 5650 5651 5652 5653 5654 5655 5656 5657 5656 5656 5655 5655 5653 5653 5652 5651
5636 5640 5641 5641 5643 5644 5645 5645 5646 5647 5649 5650 5650 5649 5649 5648 5646 5644 5643 5642 5641 5638
5629 5632 5634 5635 5636 5637 5638 5638 5639 5639 5640 5640 5641 5641 5640 5639 5637 5636 5635 5633 5629 5628
5619 5623 5625 5627 5629 5630 5631 5631 5631 5631 5631 5630 5630 5630 5629 5628 5627 5625 5624 5623 5620 5618